Hourly Data Report for October 06, 2017

All times are specified in Local Standard Time (LST). Add 1 hour to adjust for Daylight Saving Time where and when it is observed.

ST. PETERS
PRINCE EDWARD ISLAND

46°27'01.000" N
62°34'33.000" W
29.70 m
8300562
71310
ZSP

Download Data

Hourly Data (October 2017)
Hourly Data Report for October 6, 2017
Temp Definition
°C
Dew Point Temp Definition
°C
Rel Hum Definition
%
Wind Dir Definition
10's deg

Wind Spd Definition
km/h
Visibility Definition
km
Stn Press Definition
kPa
Hmdx Definition


Wind Chill Definition


Weather Definition


TIME
00:00 11.0 9.8 92 17 10   100.89     LegendNANA
01:00 12.3 10.8 91 19 14   100.88     LegendNANA
02:00 12.3 10.7 90 19 12   100.86     LegendNANA
03:00 13.2 10.1 82 21 15   100.85     LegendNANA
04:00 12.1 10.1 87 21 11   100.88     LegendNANA
05:00 12.2 9.8 85 24 10   100.93     LegendNANA
06:00 11.8 9.0 83 20 9   100.97     LegendNANA
07:00 10.7 9.1 90 25 7   101.04     LegendNANA
08:00 13.1 8.4 73 28 15   101.14     LegendNANA
09:00 13.8 8.8 72 28 21   101.19     LegendNANA
10:00 14.7 8.4 66 29 23   101.21     LegendNANA
11:00 14.5 8.7 68 30 20   101.22     LegendNANA
12:00 14.4 8.2 66 30 18   101.20     LegendNANA
13:00 14.3 7.8 65 29 17   101.17     LegendNANA
14:00 15.1 7.4 60 30 15   101.19     LegendNANA
15:00 14.8 4.5 50 31 8   101.19     LegendNANA
16:00 13.1 6.5 64 32 7   101.22     LegendNANA
17:00 12.6 7.5 71 11 3   101.24     LegendNANA
18:00 11.4 7.2 75 16 6   101.27     LegendNANA
19:00 10.2 6.4 77 16 7   101.29     LegendNANA
20:00 9.2 6.4 83 17 6   101.34     LegendNANA
21:00 8.9 6.5 85 17 9   101.37     LegendNANA
22:00 9.0 6.8 86 17 8   101.44     LegendNANA
23:00 8.2 6.7 91 22 10   101.51     LegendNANA

Notes on Data Quality.

Legend

  • E = Estimated
  • M = Missing
  • NA = Not Available
  • ‡ = Partner data that is not subject to review by the National Climate Archives
Date modified: